GW4812 Weather Reports


Display with metric or nautical units.
time (UTC)temp
F
wind
direction
speed
MPH
gust
MPH
rain 1hr
in
rain 24hr
in
rain mn
in
humidity
%
barometer
mb
20260504050552 41 287 1.0 2.0 0.00 0.00 0.00 79 1013.0
20260504045552 41 241 1.0 1.0 0.00 0.00 0.00 80 1013.0
20260504045053 41 273 1.0 2.0 0.00 0.00 0.00 79 1013.0
20260504044553 41 235 0.0 1.0 0.00 0.00 0.00 79 1013.0
20260504044052 41 271 1.0 1.0 0.00 0.00 0.00 79 1013.0
20260504043553 41 175 0.0 1.0 0.00 0.00 0.00 79 1013.0
20260504043052 41 213 0.0 0.0 0.00 0.00 0.00 78 1013.0
20260504042553 42 234 0.0 1.0 0.00 0.00 0.00 78 1013.0
20260504042052 42 234 1.0 1.0 0.00 0.00 0.00 78 1013.0
20260504041554 42 274 2.0 2.0 0.00 0.00 0.00 78 1013.0
20260504041053 42 268 0.0 1.0 0.00 0.00 0.00 77 1013.0
20260504040553 42 231 1.0 1.0 0.00 0.00 0.00 76 1013.0
20260504040052 42 196 1.0 1.0 0.00 0.00 0.00 76 1013.0
20260504035552 42 238 1.0 1.0 0.00 0.00 0.00 76 1013.0
20260504035054 42 264 1.0 2.0 0.00 0.00 0.00 76 1013.0
20260504034552 42 256 1.0 2.0 0.00 0.00 0.00 76 1013.0
20260504034053 42 234 1.0 1.0 0.00 0.00 0.00 76 1013.0
20260504033552 42 242 1.0 2.0 0.00 0.00 0.00 75 1013.0
20260504033053 42 246 2.0 2.0 0.00 0.00 0.00 75 1013.0
20260504032552 43 280 0.0 0.0 0.00 0.00 0.00 75 1013.0
20260504032053 43 220 1.0 2.0 0.00 0.00 0.00 75 1013.0
20260504031553 43 265 2.0 2.0 0.00 0.00 0.00 74 1013.0
20260504031053 43 269 1.0 1.0 0.00 0.00 0.00 74 1013.0
20260504030552 43 241 1.0 2.0 0.00 0.00 0.00 74 1013.0
20260504030053 43 249 1.0 2.0 0.00 0.00 0.00 73 1013.0
20260504025553 43 224 0.0 1.0 0.00 0.00 0.00 73 1013.0
20260504025053 43 246 1.0 2.0 0.00 0.00 0.00 72 1013.0
20260504024554 44 259 1.0 2.0 0.00 0.00 0.00 72 1013.0
20260504024053 44 260 1.0 2.0 0.00 0.00 0.00 71 1013.0
20260504023552 44 234 0.0 1.0 0.00 0.00 0.00 70 1013.0
20260504023053 44 240 1.0 2.0 0.00 0.00 0.00 70 1013.0
20260504022553 44 221 1.0 2.0 0.00 0.00 0.00 70 1013.0
20260504022052 44 266 1.0 2.0 0.00 0.00 0.00 70 1013.0
20260504021552 45 256 1.0 2.0 0.00 0.00 0.00 69 1013.0
20260504021052 45 261 2.0 2.0 0.00 0.00 0.00 69 1013.0
20260504020553 45 263 2.0 2.0 0.00 0.00 0.00 69 1013.0
20260504020052 45 252 1.0 1.0 0.00 0.00 0.00 68 1013.0
20260504015552 45 258 1.0 2.0 0.00 0.00 0.00 68 1013.0
20260504015052 46 249 1.0 1.0 0.00 0.00 0.00 67 1013.0
20260504014552 46 262 1.0 1.0 0.00 0.00 0.00 67 1013.0
20260504014052 46 241 0.0 1.0 0.00 0.00 0.00 66 1013.0
20260504013552 46 276 1.0 2.0 0.00 0.00 0.00 66 1013.0
20260504013052 47 265 1.0 2.0 0.00 0.00 0.00 65 1012.0
20260504012553 47 254 1.0 2.0 0.00 0.00 0.00 64 1012.0
20260504012055 47 270 1.0 2.0 0.00 0.00 0.00 63 1012.0
20260504011553 47 262 1.0 2.0 0.00 0.00 0.00 62 1012.0
20260504011052 48 253 1.0 1.0 0.00 0.00 0.00 62 1012.0
20260504010553 48 240 1.0 2.0 0.00 0.00 0.00 61 1012.0
20260504010052 49 171 0.0 1.0 0.00 0.00 0.00 60 1012.0
20260504005552 49 259 1.0 2.0 0.00 0.00 0.00 58 1012.0
20260504005053 49 252 1.0 2.0 0.00 0.00 0.00 55 1012.0
20260504004553 50 244 1.0 1.0 0.00 0.00 0.00 55 1012.0
20260504004052 51 269 0.0 1.0 0.00 0.00 0.00 55 1012.0
20260504003553 51 257 1.0 2.0 0.00 0.00 0.00 54 1012.0
20260504003053 52 261 1.0 2.0 0.00 0.00 0.00 52 1012.0
20260504002552 53 255 1.0 2.0 0.00 0.00 0.00 48 1012.0
20260504002053 53 242 0.0 0.0 0.00 0.00 0.00 45 1012.0
20260504001552 54 183 0.0 1.0 0.00 0.00 0.00 44 1012.0
20260504001053 55 282 0.0 1.0 0.00 0.00 0.00 43 1011.0
20260504000552 55 0 0.0 0.0 0.00 0.00 0.00 40 1011.0
20260504000053 56 266 0.0 1.0 0.00 0.00 0.00 39 1011.0
20260503235552 56 0 0.0 0.0 0.00 0.00 0.00 37 1011.0
20260503235052 57 0 0.0 0.0 0.00 0.00 0.00 37 1011.0
20260503234553 57 242 2.0 4.0 0.00 0.00 0.00 35 1011.0
20260503234052 57 196 1.0 3.0 0.00 0.00 0.00 36 1011.0
20260503233553 58 263 0.0 2.0 0.00 0.00 0.00 37 1011.0
20260503233053 58 220 0.0 2.0 0.00 0.00 0.00 35 1011.0
20260503232553 58 103 0.0 1.0 0.00 0.00 0.00 34 1011.0
20260503232052 58 200 1.0 2.0 0.00 0.00 0.00 35 1011.0
20260503231552 58 0 0.0 0.0 0.00 0.00 0.00 33 1011.0
20260503231052 58 85 0.0 1.0 0.00 0.00 0.00 34 1011.0
20260503230553 58 224 0.0 1.0 0.00 0.00 0.00 35 1011.0
20260503230053 58 187 0.0 1.0 0.00 0.00 0.00 35 1011.0
20260503225552 59 258 0.0 1.0 0.00 0.00 0.00 35 1011.0
20260503225052 59 203 1.0 2.0 0.00 0.00 0.00 32 1010.0
20260503224553 59 28 2.0 4.0 0.00 0.00 0.00 32 1011.0
20260503224052 59 206 2.0 4.0 0.00 0.00 0.00 31 1011.0
20260503223552 59 184 1.0 2.0 0.00 0.00 0.00 32 1011.0
20260503223052 59 170 0.0 2.0 0.00 0.00 0.00 32 1010.0
20260503222553 59 202 3.0 6.0 0.00 0.00 0.00 31 1010.0
20260503222053 60 200 1.0 2.0 0.00 0.00 0.00 32 1010.0
20260503221552 60 125 1.0 3.0 0.00 0.00 0.00 30 1010.0
20260503221052 60 69 2.0 4.0 0.00 0.00 0.00 30 1010.0
20260503220553 61 42 3.0 8.0 0.00 0.00 0.00 30 1010.0
20260503220052 61 161 1.0 2.0 0.00 0.00 0.00 30 1010.0
20260503215552 61 216 2.0 3.0 0.00 0.00 0.00 30 1010.0
20260503215052 61 228 2.0 6.0 0.00 0.00 0.00 31 1010.0
20260503214552 61 198 3.0 6.0 0.00 0.00 0.00 30 1010.0
20260503214052 61 267 0.0 1.0 0.00 0.00 0.00 30 1010.0
20260503213553 61 20 1.0 3.0 0.00 0.00 0.00 30 1010.0
20260503213052 62 276 1.0 2.0 0.00 0.00 0.00 30 1010.0
20260503212552 61 311 1.0 4.0 0.00 0.00 0.00 30 1010.0
20260503212052 61 255 2.0 3.0 0.00 0.00 0.00 32 1010.0
20260503211553 60 83 2.0 4.0 0.00 0.00 0.00 31 1010.0
20260503211052 61 136 2.0 4.0 0.00 0.00 0.00 31 1010.0
20260503210552 61 197 2.0 5.0 0.00 0.00 0.00 31 1010.0
20260503210053 61 249 3.0 4.0 0.00 0.00 0.00 30 1010.0
20260503205552 61 207 2.0 4.0 0.00 0.00 0.00 32 1010.0
20260503205052 60 223 2.0 4.0 0.00 0.00 0.00 33 1010.0
20260503204552 60 213 3.0 8.0 0.00 0.00 0.00 30 1010.0
20260503204052 59 193 4.0 9.0 0.00 0.00 0.00 31 1010.0
20260503203553 59 14 2.0 5.0 0.00 0.00 0.00 32 1010.0
20260503203053 59 340 2.0 4.0 0.00 0.00 0.00 31 1011.0
20260503202552 59 296 3.0 6.0 0.00 0.00 0.00 32 1010.0
20260503202052 59 207 2.0 6.0 0.00 0.00 0.00 31 1010.0
20260503201552 60 8 4.0 6.0 0.00 0.00 0.00 31 1011.0
20260503201054 59 239 2.0 4.0 0.00 0.00 0.00 31 1010.0
20260503200552 59 220 3.0 6.0 0.00 0.00 0.00 30 1011.0
20260503200052 59 126 0.0 2.0 0.00 0.00 0.00 33 1011.0
20260503195552 59 237 2.0 3.0 0.00 0.00 0.00 32 1011.0
20260503195053 59 80 2.0 5.0 0.00 0.00 0.00 32 1011.0
20260503194552 59 87 1.0 2.0 0.00 0.00 0.00 33 1011.0
20260503194054 59 262 3.0 6.0 0.00 0.00 0.00 32 1011.0
20260503193552 58 6 1.0 2.0 0.00 0.00 0.00 36 1011.0
20260503193052 58 229 5.0 11.0 0.00 0.00 0.00 33 1011.0
20260503192552 58 190 4.0 7.0 0.00 0.00 0.00 33 1011.0
20260503192052 58 87 2.0 5.0 0.00 0.00 0.00 34 1011.0
20260503191555 59 0 1.0 3.0 0.00 0.00 0.00 34 1011.0
20260503191052 58 190 2.0 5.0 0.00 0.00 0.00 34 1011.0
20260503190552 58 307 1.0 2.0 0.00 0.00 0.00 35 1011.0
20260503190052 57 203 2.0 4.0 0.00 0.00 0.00 34 1011.0
20260503185553 57 59 1.0 3.0 0.00 0.00 0.00 39 1011.0
20260503185052 56 257 2.0 6.0 0.00 0.00 0.00 37 1011.0
20260503184553 56 41 3.0 6.0 0.00 0.00 0.00 36 1011.0
20260503184052 56 0 2.0 3.0 0.00 0.00 0.00 38 1011.0
20260503183553 56 119 2.0 4.0 0.00 0.00 0.00 35 1011.0
20260503183052 56 66 4.0 7.0 0.00 0.00 0.00 35 1011.0
20260503182552 55 219 4.0 9.0 0.00 0.00 0.00 36 1011.0
20260503182052 55 285 3.0 5.0 0.00 0.00 0.00 37 1011.0
20260503181553 55 269 2.0 4.0 0.00 0.00 0.00 36 1011.0
20260503181052 55 353 2.0 5.0 0.00 0.00 0.00 37 1011.0
20260503180552 55 238 3.0 7.0 0.00 0.00 0.00 38 1011.0
20260503180052 54 354 4.0 8.0 0.00 0.00 0.00 39 1012.0
20260503175552 54 163 2.0 5.0 0.00 0.00 0.00 38 1011.0
20260503175052 55 233 4.0 6.0 0.00 0.00 0.00 38 1012.0
20260503174552 55 216 4.0 7.0 0.00 0.00 0.00 37 1011.0
20260503174052 55 41 3.0 5.0 0.00 0.00 0.00 37 1011.0
20260503173552 54 33 2.0 2.0 0.00 0.00 0.00 39 1012.0
20260503173053 54 323 3.0 6.0 0.00 0.00 0.00 41 1012.0
20260503172553 54 302 2.0 5.0 0.00 0.00 0.00 39 1012.0
20260503172052 53 236 2.0 2.0 0.00 0.00 0.00 41 1012.0
20260503171553 53 29 1.0 2.0 0.00 0.00 0.00 40 1012.0
20260503171052 53 60 1.0 2.0 0.00 0.00 0.00 41 1012.0
20260503170555 53 51 2.0 6.0 0.00 0.00 0.00 43 1012.0
20260503150552 49 212 1.0 3.0 0.00 0.00 0.00 46 1013.0
20260503130612 47 159 3.0 5.0 0.00 0.00 0.00 53 1012.0
20260503110553 43 322 0.0 1.0 0.00 0.00 0.00 63 1012.0
20260503081552 45 260 2.0 2.0 0.00 0.00 0.00 55 1011.0
20260503081053 45 306 1.0 2.0 0.00 0.00 0.00 55 1011.0
20260503080553 45 300 2.0 2.0 0.00 0.00 0.00 56 1011.0
20260503072552 46 138 0.0 0.0 0.00 0.00 0.00 56 1011.0